Location: Beutels
(47.8767°N, 9.8584°E)
Time: 00:11:00
(UTC+00:00)

ATLAS 3B R/B - Pass Details

Date: 19 May 2025
Orbit: 935 x 1258 km, 63.8° (Epoch: 15 June)

Event Time Altitude Azimuth Distance (km) Brightness Sun altitude
Exits shadow 21:30:07 27° 143° (SE) 2,113 3.7 -18.0°
Maximum altitude 21:32:31 32° 111° (ESE) 1,931 3.7 -18.2°
Drops below altitude 10° 21:39:08 10° 53° (NE) 3,212 5.3 -18.7°
Sets 21:42:17 0° 44° (NE) 4,204 6.1 -18.9°
